Lakehurst NAS, NJ

2:12 AM EDT on July 27, 2017 (GMT -0400)
Lakehurst Naes

Weather History for KNEL - February, 2013

Change the Weather History Date:

Thursday, February 28, 2013

  Actual Average Record
Temperature  
Mean Temperature 44 °F -  
Max Temperature 35 °F 43 °F 90 °F (2017)
Min Temperature 37 °F 31 °F 8 °F (2014)
Degree Days  
Heating Degree Days 22    
Moisture  
Dew Point 33 °F    
Average Humidity 70    
Maximum Humidity 89    
Minimum Humidity 50    
Precipitation  
Precipitation 0.00 in - - ()
Sea Level Pressure  
Sea Level Pressure 29.61 in    
Wind  
Wind Speed 4 mph (West)    
Max Wind Speed 14 mph    
Max Gust Speed 18 mph    
Averages and records for this station are not official NWS values.
T = Trace of Precipitation, MM = Missing Value Source: NWS Daily Summary

Daily Weather History Graph

Daily Weather History Graph

Search for Another Location

Airport or City:

Trip Planner

Search our weather history database for the weather conditions in past years. The results will help you decide how hot, cold, wet, or windy it might be!

Date:

Astronomy

Feb. 28, 2013 Rise Set
Actual Time 6:31 AM EST 5:48 PM EST
Civil Twilight 6:04 AM EST 6:15 PM EST
Nautical Twilight 5:33 AM EST 6:47 PM EST
Astronomical Twilight 5:02 AM EST 7:18 PM EST
Moon 9:12 PM EST (2/28) 7:40 AM EST (2/28)
Length of Visible Light 12h 10m
Length of Day
11h 16m
Waning Gibbous, 91% of the Moon is Illuminated
Feb 28
Waning Gibbous
Mar 4
Last Quarter
Mar 11
New
Mar 19
First Quarter
Mar 27
Full

Hourly Weather History & Observations

Time (EST) Temp. Windchill Dew Point Humidity Pressure Visibility Wind Dir Wind Speed Gust Speed Precip Events Conditions
1:00 AM 41.0 °F - 37.9 °F 89% 29.62 in - Calm Calm - N/A   Overcast
2:00 AM 42.1 °F - 37.9 °F 85% 29.61 in - Calm Calm - N/A   Overcast
3:00 AM 42.1 °F - 37.0 °F 82% 29.62 in - Calm Calm - N/A   Overcast
4:00 AM 39.9 °F - 37.0 °F 89% 29.61 in - Calm Calm - N/A   Overcast
5:00 AM 39.9 °F - 36.0 °F 86% 29.61 in - Calm Calm - N/A   Overcast
6:00 AM 41.0 °F - 36.0 °F 82% 29.62 in - Calm Calm - N/A   Overcast
7:00 AM 41.0 °F 39.0 °F 36.0 °F 82% 29.62 in - WSW 3.5 mph - N/A   Overcast
8:00 AM 42.1 °F 40.2 °F 37.9 °F 85% 29.64 in - WSW 3.5 mph - N/A   Overcast
8:11 AM 42.8 °F 41.1 °F 37.4 °F 81% 29.64 in - WSW 3.5 mph - N/A   Overcast
9:00 AM 44.1 °F 40.1 °F 39.0 °F 82% 29.63 in - West 6.9 mph - N/A   Overcast
10:00 AM 46.0 °F 40.2 °F 36.0 °F 68% 29.62 in - West 12.7 mph - N/A   Mostly Cloudy
10:40 AM 46.4 °F 41.5 °F 35.6 °F 66% 29.61 in - WNW 10.4 mph - N/A   Overcast
10:53 AM 46.4 °F 41.1 °F 33.8 °F 62% 29.60 in - West 11.5 mph - N/A   Overcast
11:00 AM 45.0 °F 40.6 °F 34.0 °F 65% 29.60 in - West 8.1 mph - N/A   Overcast
12:00 PM 48.0 °F - 32.0 °F 54% 29.58 in - West 10.4 mph - N/A   Overcast
1:00 PM 48.0 °F - 32.0 °F 54% 29.57 in - West 12.7 mph - N/A   Overcast
3:00 PM 46.0 °F 41.9 °F 30.0 °F 54% 29.57 in - NW 8.1 mph 16.1 mph N/A   Overcast
4:00 PM 46.0 °F 41.4 °F 28.0 °F 50% 29.56 in - West 9.2 mph - N/A   Overcast
5:00 PM 44.1 °F 40.8 °F 28.9 °F 55% 29.57 in - WNW 5.8 mph - N/A   Clear
6:00 PM 42.1 °F 39.2 °F 27.0 °F 55% 29.58 in - West 4.6 mph - N/A   Overcast
7:00 PM 39.9 °F 35.1 °F 27.0 °F 60% 29.60 in - West 6.9 mph - N/A   Overcast
8:00 PM 41.0 °F 36.4 °F 28.0 °F 60% 29.61 in - West 6.9 mph - N/A   Overcast
9:00 PM 41.0 °F 33.9 °F 28.9 °F 62% 29.62 in - WNW 12.7 mph 18.4 mph N/A   Overcast
10:00 PM 39.0 °F 31.0 °F 30.0 °F 70% 29.63 in - West 13.8 mph - N/A   Mostly Cloudy
11:00 PM 37.0 °F 30.4 °F 30.0 °F 76% 29.63 in - WNW 9.2 mph - N/A   Clear